Regional Weather Roundup
Issued by NWS

Home | Current Version | Previous Version | Text Only | Print | Product List | Glossary On
Versions: 1 2 3 4 5 6 7 8 9 10 11 12 13 14 15 16 17 18 19 20 21 22 23 24 25 26 27 28
000
ASUS45 KREV 010310
RWRNV
NEVADA REGIONAL WEATHER ROUNDUP
NATIONAL WEATHER SERVICE RENO NV
800 PM PDT SAT APR 30 2016

NOTE: "FAIR" INDICATES FEW OR NO CLOUDS BELOW 12,000 FEET WITH NO
SIGNIFICANT WEATHER AND/OR OBSTRUCTIONS TO VISIBILITY.

NVZ001-003-004-010400-
WESTERN NEVADA

CITY           SKY/WX    TMP DP  RH WIND       PRES   REMARKS
RENO           PTCLDY    57  28  33 E9        30.04R
CARSON CITY    CLOUDY    54  34  47 N3        30.04R
MINDEN         FAIR      46  39  76 CALM      30.05R
SLIDE MTN        N/A     30  28  93 E33         N/A
PYRAMID LAKE     N/A     59 N/A N/A N13         N/A
FALLON         CLOUDY    59  28  30 N10       30.00R
LOVELOCK       CLEAR     58  29  33 N6        30.02R
HAWTHORNE      CLOUDY    57  32  38 NW10      30.01R
$$

NVZ002-CAZ072-073-010400-
NORTHERN AND CENTRAL SIERRA

CITY           SKY/WX    TMP DP  RH WIND       PRES   REMARKS
S. LAKE TAHOE  MOCLDY    44  31  60 N8        30.05R
TRUCKEE        MOCLDY    46  30  53 NE5       30.07R
SQUAW VLY 8000   N/A     36  28  75 E7          N/A
SUSANVILLE     PTCLDY    55  32  41 N8        30.05R
BLUE CANYON    CLEAR     51  27  39 NE8G28    30.00R
MAMMOTH LAKES  MOCLDY    42  29  61 N9        30.07R
BRIDGEPORT     CLOUDY    42  30  62 VRB6      30.06R
$$

NVZ030-031-036-010400-
NORTHERN NEVADA

CITY           SKY/WX    TMP DP  RH WIND       PRES   REMARKS
ELKO           CLEAR     50  32  50 NE10      30.03R
WINNEMUCCA     CLEAR     54  35  48 N12       30.05R
WENDOVER       PTCLDY    52  36  54 N18G24    30.01S
$$

NVZ035-037-010400-
CENTRAL NEVADA

CITY           SKY/WX    TMP DP  RH WIND       PRES   REMARKS
ELY            PTCLDY    40  35  83 N13       30.01R
EUREKA           N/A     44  35  70 NE7       30.01R
$$

NVZ013-014-010400-
SOUTH CENTRAL NEVADA

CITY           SKY/WX    TMP DP  RH WIND       PRES   REMARKS
TONOPAH        CLOUDY    54  31  41 N22G30    29.96R
$$

NVZ017-020-022-010400-
SOUTHERN NEVADA

CITY           SKY/WX    TMP DP  RH WIND       PRES   REMARKS
LAS VEGAS      MOCLDY    57  48  72 S5        29.77R
N. LAS VEGAS   MOCLDY    57  51  80 CALM      29.79S
NELLIS AFB     MOCLDY    57  51  81 E6        29.80R
HENDERSON      MOCLDY    54  50  86 S3        29.82R
MERCURY        CLOUDY    54  46  74 E17G23    29.82R
$$




USA.gov is the U.S. government's official web portal to all federal, state and local government web resources and services.